This demonstration page uses our WeatherBlox Daily Observations layout. Learn more.

Left ArrowRight Arrow

Hourly Observations for October 20, 2021

Temp ( °F °C ) Dew Point ( °F °C ) Humidity (%) Winds ( mph kmh ) Pressure ( in mb ) Visibility ( mi km ) Precip ( " mm )
12:53 am 00:53 Clear 52 11.1 49 9.4 89 89 Calm 30.22 1024 10 16 0.00 0.00
1:53 am 01:53 Clear 50 10 48 8.9 93 93 Calm 30.22 1023 10 16 0.00 0.00
2:53 am 02:53 Clear 48 8.9 46 7.8 93 93 Calm 30.23 1024 10 16 0.00 0.00
3:53 am 03:53 Clear 48 8.9 47 8.3 96 96 Calm 30.23 1024 10 16 0.00 0.00
4:53 am 04:53 Clear 48 8.9 46 7.8 93 93 Calm 30.24 1024 10 16 0.00 0.00
5:53 am 05:53 Clear 48 8.9 46 7.8 93 93 Calm 30.25 1024 10 16 0.00 0.00
6:53 am 06:53 Clear with Light Rain 47 8.3 45 7.2 93 93 Calm 30.27 1025 10 16 0.00 0.00
7:53 am 07:53 Sunny 47 8.3 45 7.2 93 93 Calm 30.28 1025 10 16 0.00 0.00
8:53 am 08:53 Sunny 51 10.6 49 9.4 92 92 Calm 30.29 1026 10 16 0.00 0.00
9:53 am 09:53 Sunny 57 13.9 52 11.1 83 83 Calm 30.29 1026 10 16 0.00 0.00
10:53 am 10:53 Sunny 66 18.9 52 11.1 61 61 SSW 3 6 30.30 1026 10 16 0.00 0.00
11:53 am 11:53 Sunny 70 21.1 48 8.9 46 46 SSW 7 11 30.29 1026 10 16 0.00 0.00
12:53 pm 12:53 Sunny 73 22.8 53 11.7 50 50 Calm 30.27 1025 10 16 0.00 0.00
1:53 pm 13:53 Sunny 76 24.4 55 12.8 48 48 Calm 30.23 1024 10 16 0.00 0.00
2:53 pm 14:53 Sunny 76 24.4 53 11.7 45 45 VRB 6 9 30.21 1023 10 16 0.00 0.00
3:53 pm 15:53 Sunny 77 25 53 11.7 43 43 Calm 30.19 1023 10 16 0.00 0.00
4:53 pm 16:53 Sunny 77 25 53 11.7 43 43 SSW 9 15 30.18 1022 10 16 0.00 0.00
5:53 pm 17:53 Sunny 75 23.9 51 10.6 43 43 SSW 6 9 30.18 1022 10 16 0.00 0.00
6:53 pm 18:53 Sunny 73 22.8 52 11.1 48 48 SSW 3 6 30.18 1022 10 16 0.00 0.00
7:53 pm 19:53 Clear 63 17.2 56 13.3 78 78 WSW 3 6 30.19 1022 10 16 0.00 0.00
8:53 pm 20:53 Clear 64 17.8 55 12.8 73 73 Calm 30.19 1022 10 16 0.00 0.00
9:53 pm 21:53 Clear 61 16.1 56 13.3 84 84 Calm 30.19 1022 10 16 0.00 0.00
10:53 pm 22:53 Clear 59 15 56 13.3 90 90 Calm 30.20 1023 10 16 0.00 0.00
11:53 pm 23:53 Clear 58 14.4 56 13.3 93 93 Calm 30.20 1023 10 16 0.00 0.00

Powered by AerisWeather